* Astronomy

Members Login
Username 
 
Password 
    Remember Me  
Post Info TOPIC: Asteroid 2012 HD20


L

Posts: 131433
Date:
Asteroid 2012 HD20
Permalink  
 


Orbital elements:
2012 HD20                                           PHA, Earth MOID = 0.0441 AU
Epoch 2012 Mar. 14.0 TT = JDT 2456000.5                 MPC
M  37.68992              (2000.0)            P               Q
n   0.76459819     Peri.   32.14712     -0.48614072     -0.86994281
a   1.1844422      Node    87.06033     +0.78318375     -0.47578924
e   0.2749402      Incl.    4.75958     +0.38767309     -0.12970779
P   1.29           H   21.7           G   0.15           U   9

MPEC 2012 - H73



__________________
Page 1 of 1  sorted by
 
Quick Reply

Please log in to post quick replies.



Create your own FREE Forum
Report Abuse
Powered by ActiveBoard